RH
42 41 40 39 37 36 35 35 35 36 37 38 38 38 38 38 38 38 38 37 37 36 35 34 33 32 31 30 30 29 29 28 28 28 28 28 28 28 28 29 29 30 30 31 32 33 34 35 37 38 39 40 41 42 43 43 43 44 45 46 47 47 48 48 49 50 51 51 52 53 54 54 55 56 57 58 59 60 60 60 59 58 57 57 56
32 32 32 32 33 33 33 34 34 34 35 35 35 35 35 34 34 33 33 32 32 31 30 29 29 28 28 27 26 26 26 25 25 25 24 24 24 23 23 23 23 22 22 22 22 22 23 23 24 25 27 28 30 31 33 35 36 38 39 39 40 41 42 43 43 44 45 47 48 48 49 49 50 50 50 50 51 52 53 54 55 55 55 56 56
36 36 36 36 36 37 37 37 37 37 37 37 37 36 36 35 35 34 34 33 32 31 30 30 29 28 28 27 27 26 26 26 25 25 24 24 24 23 24 23 23 23 23 23 23 22 22 22 22 21 21 21 21 21 22 24 25 27 28 30 32 33 35 36 37 38 39 40 42 43 44 45 46 46 47 48 48 48 48 49 50 51 52 52 53
38 38 38 39 38 38 39 39 39 39 39 39 39 39 38 37 37 36 35 35 34 33 32 32 31 30 29 28 28 28 27 26 26 25 24 23 23 23 22 22 21 21 21 21 21 21 22 22 23 23 22 22 22 21 20 20 20 19 20 20 21 23 24 26 28 29 31 33 34 36 38 39 41 41 42 43 44 44 45 46 47 48 49 50 51
38 39 40 41 41 41 41 41 41 41 41 40 40 40 39 38 38 38 38 37 36 35 35 34 34 33 32 32 31 31 31 30 30 29 28 27 27 26 25 24 23 22 21 20 19 18 18 18 18 18 19 19 20 21 21 21 21 21 20 20 19 19 18 19 19 20 21 23 24 26 28 30 33 35 36 37 38 39 40 41 43 45 46 48 49
40 40 40 41 41 42 42 41 41 41 41 41 41 41 40 39 39 38 38 38 37 36 36 35 35 35 34 34 34 33 33 33 33 32 31 31 31 30 30 28 28 27 25 24 23 22 20 19 18 16 15 15 15 15 15 16 17 18 19 20 20 20 20 20 19 19 18 17 18 18 19 20 22 24 27 29 30 32 33 35 37 39 41 43 44
42 42 43 44 45 45 46 45 45 46 46 46 47 47 46 44 43 42 40 39 38 37 37 36 36 36 36 36 36 35 35 35 34 34 33 32 32 32 31 30 29 29 28 27 27 26 25 24 22 21 19 17 15 14 13 12 12 12 12 13 14 15 17 18 19 20 19 19 19 18 18 17 17 18 19 20 21 22 24 25 27 29 32 34 36
46 48 49 50 51 52 52 52 51 51 51 50 50 50 50 50 49 48 47 44 43 42 41 41 41 41 41 40 40 40 39 39 38 38 38 37 36 35 34 34 32 31 30 29 28 27 26 26 25 24 23 21 19 17 16 14 12 11 10 10 10 10 10 10 12 13 14 16 17 18 19 19 19 19 19 18 18 18 18 17 18 20 22 24 26
52 53 55 56 56 56 56 56 56 55 54 53 52 52 52 52 52 51 50 49 47 47 47 47 48 48 48 47 47 46 45 44 44 44 44 42 40 40 39 38 36 34 33 32 31 29 27 26 25 24 24 23 22 21 19 17 15 14 12 11 10 9 9 8 8 8 8 8 9 11 12 14 16 17 19 20 20 20 20 19 17 16 16 17 18
61 62 63 63 62 60 60 60 60 59 58 56 54 53 51 51 51 51 52 52 51 52 53 53 54 53 53 53 52 52 52 50 49 49 48 46 44 44 43 41 40 38 36 35 33 31 29 27 26 25 24 23 22 21 20 19 18 16 15 14 13 12 11 10 9 8 8 7 7 6 7 7 8 9 11 13 15 18 20 21 21 20 18 16 15
73 72 71 69 67 65 64 65 64 62 58 56 54 53 53 52 53 54 56 57 57 57 57 57 57 56 56 57 56 56 56 53 52 52 51 49 47 46 45 43 41 40 38 36 34 32 29 27 26 26 25 24 23 22 21 20 18 17 16 15 15 14 13 12 11 10 10 9 8 7 6 6 6 6 6 6 8 9 11 14 16 19 20 20 19
68 65 64 63 63 63 64 63 61 59 56 55 56 56 57 58 58 60 63 63 61 60 60 60 60 61 60 58 57 56 54 52 51 52 52 51 48 47 45 42 40 38 36 35 32 30 27 26 26 26 25 24 23 22 21 21 20 19 19 18 17 15 14 12 12 11 10 10 9 9 7 7 6 5 5 5 5 6 6 7 8 10 12 14 16
55 53 52 53 56 56 56 54 54 57 59 60 63 64 65 66 65 66 68 67 63 61 61 61 60 59 57 54 53 52 51 50 50 50 50 49 46 44 42 39 38 36 33 30 28 25 24 24 24 24 24 23 22 21 21 21 21 21 21 21 20 18 16 14 12 10 9 9 8 8 8 8 7 6 6 5 5 5 5 5 6 6 6 8 9
44 45 48 50 52 51 50 53 57 62 66 67 69 70 71 72 71 70 70 68 64 61 60 58 56 55 52 50 49 48 47 46 45 46 46 44 42 40 38 37 35 32 29 26 23 21 21 21 21 21 21 20 20 20 20 21 21 21 22 22 21 20 18 15 12 10 8 7 6 6 6 6 6 6 6 6 5 5 5 5 5 5 5 6 6
35 36 37 38 39 40 42 46 51 54 57 59 59 59 59 59 57 55 55 53 51 48 45 43 42 41 40 40 39 39 38 38 39 39 40 39 38 37 37 36 34 31 28 24 21 18 18 18 18 18 18 17 17 16 16 16 16 16 16 17 17 16 14 12 10 9 7 6 5 4 4 4 4 5 5 5 5 5 5 5 5 5 5 5 6
33 30 29 28 26 28 29 31 33 34 35 35 35 34 33 33 32 31 30 29 28 26 24 23 23 22 22 22 22 22 23 23 24 25 27 27 28 29 30 31 30 28 25 21 18 16 16 16 15 15 13 11 10 9 9 8 8 8 8 8 9 9 9 8 7 6 5 5 4 4 3 3 3 3 3 4 4 4 4 4 4 5 5 5 5
32 29 27 27 26 26 26 26 26 26 27 27 26 27 26 27 27 26 26 25 23 23 21 20 18 17 16 15 14 14 13 14 14 15 16 17 19 21 22 23 24 23 20 17 15 14 12 12 11 10 9 8 7 6 6 6 5 5 5 5 5 5 5 5 5 5 4 4 4 4 4 4 4 3 3 4 3 4 4 4 4 4 4 5 5
31 29 27 27 27 27 28 28 29 29 29 30 30 31 31 30 30 28 28 27 25 24 22 20 19 17 16 15 13 13 12 12 13 13 14 15 16 17 17 18 19 18 16 13 10 9 7 6 6 5 6 5 5 5 5 5 5 5 5 5 5 5 4 4 4 4 4 4 4 4 4 4 4 4 4 4 4 4 4 4 4 4 4 5 5
30 30 29 30 29 30 31 30 32 32 32 33 32 32 32 31 30 29 28 27 25 23 21 19 17 15 15 14 14 14 13 13 13 13 13 13 13 14 14 14 13 12 10 8 6 5 5 4 4 4 5 5 4 5 4 4 4 4 5 5 5 6 5 4 4 4 4 4 5 5 5 5 4 4 4 4 4 4 4 4 4 4 4 4 4
32 33 33 34 34 33 34 34 35 35 35 35 35 34 34 33 32 31 29 29 26 23 21 18 17 16 15 15 15 15 15 14 14 13 13 13 12 12 11 10 9 8 7 6 6 5 5 5 5 5 5 5 4 4 4 4 4 4 4 5 5 5 5 4 4 4 4 4 5 5 5 5 5 5 5 5 4 4 4 4 4 4 4 4 4
34 35 34 36 36 36 37 37 37 38 37 38 37 37 37 35 34 33 32 30 27 24 21 18 18 17 17 17 18 18 17 15 14 13 12 12 10 9 9 7 7 6 6 6 5 5 6 5 6 5 5 5 5 5 4 4 4 4 4 4 4 4 4 4 3 4 4 4 4 4 5 5 5 5 5 5 5 5 4 4 4 4 4 4 4
34 35 34 35 36 36 38 38 39 39 39 40 40 39 39 37 36 35 32 30 26 23 20 19 18 19 19 20 20 19 18 16 15 14 12 11 9 8 7 6 6 6 6 6 6 6 6 5 5 5 5 5 5 4 4 4 3 3 3 3 4 3 3 3 3 3 3 3 3 4 4 4 4 4 4 4 4 4 4 4 4 4 4 4 4
35 35 35 36 37 37 39 39 39 40 41 42 42 41 40 39 37 36 33 29 26 22 20 20 21 23 25 26 24 22 19 17 15 14 12 11 9 8 7 7 7 6 6 6 6 5 5 5 5 5 4 4 4 4 3 3 3 3 3 3 3 4 3 3 3 3 4 3 3 3 3 3 3 3 4 4 4 4 4 4 4 4 4 4 4
37 37 37 37 38 38 39 40 41 43 44 44 44 43 42 40 38 36 32 29 26 24 24 26 29 31 32 30 26 22 19 17 14 12 11 9 8 8 7 7 7 7 7 6 6 6 5 5 5 4 4 4 3 4 4 4 4 3 4 4 3 4 3 3 3 4 4 4 3 3 3 3 3 3 4 4 4 4 4 4 4 4 3 3 3
39 39 39 39 40 41 42 43 45 46 46 45 44 43 42 40 38 36 33 30 28 28 29 31 33 34 31 27 23 19 16 14 12 10 9 8 8 8 8 8 8 7 7 7 6 6 5 4 4 4 4 4 4 4 4 4 4 4 4 4 4 4 3 3 3 3 3 3 3 3 3 3 3 3 3 4 3 4 4 4 4 4 3 4 3
42 42 43 43 43 44 44 45 45 45 45 44 44 43 42 40 38 36 34 31 30 29 29 30 30 29 27 24 20 17 14 12 10 9 9 9 9 9 9 8 8 7 7 6 5 5 4 4 4 4 4 4 4 4 4 4 4 4 4 4 4 4 4 3 4 3 3 3 3 4 3 3 3 3 3 3 3 3 3 3 3 4 3 3 3
45 45 46 46 45 45 44 44 44 44 45 45 44 43 42 41 39 37 33 30 28 28 28 28 28 25 23 20 17 15 12 10 9 9 9 9 9 9 9 8 8 6 6 5 4 4 4 4 4 4 4 4 4 4 4 4 4 4 4 4 4 4 4 4 4 4 3 3 3 4 4 4 4 4 3 3 3 3 3 3 3 3 3 3 3
46 46 45 44 43 44 44 45 46 45 46 45 44 44 43 42 39 35 31 27 25 26 26 26 25 21 18 16 13 11 10 9 9 9 9 9 8 8 8 7 6 5 5 5 4 4 4 4 4 4 4 4 4 4 4 4 4 4 4 4 4 4 4 4 4 4 4 4 4 4 4 4 4 4 4 4 3 3 3 3 3 3 3 3 3
44 43 42 42 42 44 45 46 46 46 46 46 46 46 44 41 38 34 30 27 25 25 25 23 21 18 15 13 11 10 9 9 9 10 9 9 8 8 7 6 5 5 5 4 4 4 4 4 4 4 4 4 4 4 4 4 4 4 4 4 4 4 4 4 4 4 4 4 4 4 4 4 4 4 4 3 3 3 3 3 4 3 3 3 3
43 42 41 42 43 44 45 45 46 47 48 49 47 46 43 40 37 34 31 27 26 25 23 21 18 16 13 11 9 9 9 9 9 9 9 8 8 7 6 5 5 5 5 4 4 4 4 4 4 4 4 4 4 4 4 4 4 4 4 4 5 5 5 5 5 5 5 5 4 5 4 4 4 4 4 4 3 4 4 4 4 4 4 4 3
44 43 43 43 44 45 46 47 48 50 50 49 46 44 42 39 36 33 30 26 25 23 21 18 16 13 11 9 9 9 9 10 9 9 9 8 7 6 5 5 5 5 5 4 4 4 4 5 5 5 5 4 4 4 4 5 5 5 5 5 5 5 5 5 5 5 5 5 5 5 5 4 4 4 4 4 4 4 4 4 4 4 4 4 3
47 46 45 44 45 47 49 50 51 51 48 46 44 42 41 38 34 32 29 25 23 21 19 16 13 11 10 9 9 9 10 10 9 9 9 8 7 6 5 6 6 6 5 5 5 5 5 5 5 4 5 5 5 5 5 5 5 5 5 5 5 6 5 5 5 5 5 5 5 5 5 5 5 4 4 4 4 4 4 4 4 4 4 3 4
48 47 46 45 47 49 51 51 51 49 46 43 42 41 39 37 33 31 28 24 22 20 17 15 12 10 9 9 9 10 10 10 9 9 9 7 6 6 6 6 6 6 6 5 5 6 5 5 5 5 5 5 5 6 6 6 6 5 5 5 5 6 5 5 5 5 5 5 5 5 5 5 4 4 4 4 4 4 4 4 4 4 4 3 3
49 49 47 47 48 49 49 50 49 47 44 41 40 39 37 35 32 29 27 23 21 19 16 14 11 9 9 9 10 10 10 10 10 9 8 7 6 6 6 6 6 6 6 6 6 6 6 6 6 6 6 6 6 6 6 6 6 5 5 6 6 6 5 5 5 5 5 5 5 5 5 5 5 4 4 4 4 4 4 4 4 3 4 3 3
49 50 48 47 48 48 49 50 49 47 43 40 38 37 35 33 31 29 26 23 21 19 16 12 10 9 10 10 10 11 10 10 10 9 8 7 6 6 6 6 6 6 6 6 6 6 6 6 6 6 6 6 6 6 6 5 5 6 6 6 6 5 5 5 5 5 5 5 5 5 5 5 4 4 4 4 4 4 4 4 4 3 3 3 3
50 51 49 48 48 49 50 51 50 47 44 39 37 36 35 33 31 29 27 25 23 19 15 11 10 10 10 10 11 11 10 10 10 9 8 7 6 7 6 6 6 6 6 6 6 6 7 7 7 7 7 7 6 6 6 5 5 5 5 6 6 5 5 5 5 5 5 5 4 4 4 4 4 4 4 4 3 4 3 3 3 3 3 4 4
51 51 50 49 49 49 51 52 50 48 44 40 36 35 34 33 31 30 28 25 23 19 14 11 10 10 11 11 12 11 11 11 11 9 8 7 7 7 7 6 6 6 6 7 7 6 7 7 7 7 8 7 7 7 6 6 5 5 5 5 5 5 5 5 5 5 5 4 4 4 4 4 4 4 4 4 3 3 3 3 4 4 4 4 4
52 52 51 51 51 50 50 51 50 48 45 41 37 34 33 32 31 30 28 25 22 18 13 11 10 10 12 12 12 12 11 11 11 10 8 8 7 7 7 7 6 6 7 7 7 7 7 8 8 8 8 8 8 7 7 6 6 6 6 6 5 5 5 5 5 4 4 4 4 4 4 4 4 4 4 4 4 3 4 4 4 4 4 4 5
52 52 51 51 52 51 51 52 51 50 48 43 38 34 32 32 31 30 28 25 22 18 13 11 11 11 12 13 13 12 11 12 12 10 9 8 8 8 8 7 7 7 7 8 8 7 8 9 9 9 9 9 9 8 7 7 7 6 6 6 6 6 5 5 5 4 4 4 4 4 4 4 4 4 4 4 4 4 4 4 4 4 4 4 4
53 52 50 49 50 51 53 54 53 52 50 45 39 34 32 32 32 30 29 27 23 19 14 12 11 11 12 13 13 12 12 12 12 10 9 9 9 9 9 8 7 7 8 9 9 8 8 9 10 9 9 9 9 9 8 7 7 7 7 7 6 6 6 5 5 4 4 4 4 4 4 4 4 5 4 4 4 4 4 4 4 4 4 4 4
53 52 50 48 48 49 52 55 56 54 51 46 40 35 32 32 33 31 31 29 25 20 15 12 12 12 13 13 13 12 12 13 12 11 9 9 10 9 9 9 8 8 9 10 10 9 9 10 11 10 10 10 10 9 8 7 7 7 7 7 7 7 6 6 5 5 4 5 5 5 5 5 5 5 4 4 5 4 4 4 4 5 5 4 5
54 52 50 48 46 47 49 53 55 54 51 47 41 35 32 32 33 32 32 30 26 21 16 13 12 13 13 14 14 13 13 13 12 11 10 10 10 10 9 9 9 8 9 10 11 10 9 10 11 11 11 10 10 11 10 8 7 7 7 7 7 7 7 6 6 5 5 5 5 5 5 5 5 5 5 4 4 4 4 4 4 4 5 5 5
55 52 50 47 45 45 46 49 52 52 50 47 42 36 32 31 33 33 32 31 27 21 16 13 13 13 14 14 14 13 13 13 13 11 11 11 11 10 10 9 9 8 9 11 11 11 10 10 11 11 11 11 11 12 12 10 8 7 7 7 7 7 7 7 6 6 5 5 5 5 5 5 4 4 5 4 4 4 4 4 4 4 4 5 5
56 53 50 47 44 44 44 46 48 49 48 47 43 37 32 31 32 33 33 31 27 21 16 14 13 13 14 14 14 13 13 14 13 12 11 12 12 11 10 9 9 9 10 11 12 12 11 11 12 11 11 11 11 12 13 12 10 8 7 7 8 7 8 7 6 6 6 5 5 5 5 5 5 5 5 5 5 4 4 4 4 4 4 4 4
55 53 50 46 43 42 42 44 46 46 46 45 43 37 32 30 32 33 33 32 27 21 16 13 13 14 14 14 14 12 13 14 13 12 12 12 13 13 11 10 9 9 10 12 13 13 12 12 12 12 11 10 10 11 13 13 12 10 8 8 8 7 7 7 7 6 6 6 5 5 5 5 5 5 5 5 5 5 4 4 4 4 4 5 4
55 52 49 45 42 41 40 42 44 44 44 44 42 38 32 31 33 34 34 33 29 22 17 14 13 14 15 15 14 13 13 14 13 12 12 13 14 14 12 10 10 9 10 12 14 15 14 13 13 13 12 11 10 10 12 13 13 11 9 8 8 8 8 7 7 6 6 6 6 6 5 5 5 5 5 5 5 5 5 4 5 5 4 5 5
53 51 48 44 41 39 38 39 41 42 42 42 41 37 33 32 34 36 36 35 30 23 17 14 14 15 15 15 15 13 13 14 13 12 12 12 14 15 13 12 11 10 10 12 14 16 16 15 15 14 13 12 10 10 11 13 13 12 10 9 9 9 8 8 7 6 6 6 7 6 6 6 6 5 5 5 5 5 5 5 5 5 5 5 5
50 48 46 42 39 37 36 36 39 40 40 40 40 36 32 32 35 38 38 37 32 24 18 15 14 15 17 16 15 14 14 14 13 12 11 12 14 15 14 12 11 11 10 12 15 17 18 18 17 16 15 14 11 10 11 12 13 14 12 10 9 9 9 9 8 7 7 6 6 6 6 6 7 6 5 5 5 5 5 5 5 5 5 5 5
47 45 44 40 37 35 34 35 38 40 39 40 39 35 32 32 36 39 40 39 34 24 18 15 15 16 18 17 16 14 14 15 14 12 12 12 13 15 15 13 11 10 10 12 15 18 19 20 19 17 16 15 13 11 10 11 13 14 13 11 10 10 9 9 8 8 8 7 7 7 6 6 7 6 6 6 6 5 5 5 4 5 5 5 5
43 42 41 38 35 34 33 34 38 40 40 40 38 34 31 33 37 40 41 41 36 25 18 15 15 17 18 18 16 15 14 15 14 13 13 13 12 13 14 14 13 11 10 11 15 19 20 21 21 20 19 17 15 12 11 10 11 12 13 11 10 9 9 9 8 8 8 8 8 8 8 7 7 6 6 6 6 5 5 5 5 5 5 5 5
40 40 39 36 34 33 33 35 38 39 40 40 38 34 32 34 38 41 42 42 37 26 19 16 16 18 19 18 16 15 15 15 14 14 14 15 14 13 11 11 12 12 11 11 15 19 22 22 24 25 24 23 21 18 15 14 13 14 14 12 10 10 9 9 8 7 7 8 8 9 9 9 8 7 7 6 6 5 5 5 5 5 5 5 5
Wind_Speed
86 87 87 88 88 89 89 90 91 92 93 95 97 99 102 104 105 107 109 111 113 115 117 118 119 121 122 123 125 126 127 129 131 132 134 136 138 139 141 142 144 146 147 149 150 151 153 154 155 157 158 159 159 160 160 160 160 161 161 161 161 161 161 161 160 160 160 160 160 160 161 161 161 161 161 160 160 160 160 160 160 159 159 158 158
79 80 81 82 83 84 85 85 87 87 88 90 91 93 94 96 97 99 100 102 104 106 108 109 111 113 114 116 118 119 121 123 124 126 128 130 132 133 135 136 138 139 141 143 144 146 147 149 151 153 155 157 158 160 161 162 163 164 164 165 165 165 165 165 165 165 164 164 164 164 164 164 164 164 164 163 163 163 162 162 161 161 161 160 160
77 78 79 80 81 81 82 83 84 86 87 87 89 91 92 93 94 95 97 99 100 102 103 104 106 107 109 110 112 114 116 117 119 122 124 125 127 128 130 132 134 135 137 138 139 141 142 144 145 147 149 151 153 155 156 158 160 162 163 165 166 167 168 168 169 169 168 168 168 167 168 168 168 168 167 167 167 166 165 165 164 163 163 162 162
75 76 77 79 80 81 82 83 84 85 86 87 89 90 91 92 93 95 96 97 99 100 100 101 102 103 104 105 106 107 109 111 113 115 118 119 120 122 124 126 128 130 132 134 135 136 138 140 142 144 146 147 149 150 151 153 154 156 158 160 162 163 165 167 168 169 170 171 171 171 171 171 171 172 172 171 171 170 169 168 167 167 166 166 165
75 77 78 79 81 82 83 84 85 87 88 89 90 92 93 94 95 96 97 98 99 100 100 101 101 102 102 103 103 103 104 106 108 110 111 112 113 115 117 119 121 123 125 127 128 130 132 135 137 139 142 144 145 147 148 149 151 152 153 155 156 158 159 161 163 165 166 168 169 170 171 172 172 174 175 175 175 175 173 173 172 171 171 170 169
77 79 80 81 83 84 86 87 88 89 90 91 93 94 95 96 97 98 99 100 101 101 102 102 102 103 103 103 103 103 103 104 106 107 107 108 108 110 112 114 115 117 119 120 122 124 126 129 131 134 136 138 140 142 144 145 147 148 150 152 153 155 156 157 159 161 162 163 164 165 167 168 169 171 172 174 176 177 176 176 176 175 175 175 174
80 81 83 84 85 87 88 90 90 91 92 93 94 95 96 97 98 98 99 100 102 102 102 102 102 103 103 103 104 104 104 105 106 106 107 107 107 108 110 111 112 113 115 116 118 120 121 124 126 128 131 133 135 137 139 140 142 143 145 147 149 151 152 154 155 157 159 160 161 162 163 164 165 166 167 169 171 172 174 175 176 176 177 178 178
83 84 85 86 88 89 90 91 92 93 94 94 95 96 97 97 97 98 98 100 101 101 102 102 102 103 103 103 104 105 105 106 107 107 108 109 109 109 111 111 112 113 114 115 116 117 119 121 122 124 127 129 131 133 135 136 138 139 140 142 144 146 147 149 150 153 155 156 158 159 160 161 162 163 164 165 166 167 169 171 172 173 174 175 176
85 86 87 88 89 90 91 92 93 94 94 95 96 96 96 97 97 97 98 99 100 100 101 101 102 102 102 103 104 105 106 106 107 108 109 110 111 111 113 114 114 115 115 116 117 118 119 120 120 121 123 125 126 128 131 133 134 136 137 138 140 141 142 144 145 147 149 151 153 155 156 158 159 161 162 163 164 164 165 167 168 169 170 170 172
86 87 88 89 90 91 91 92 93 94 95 95 95 95 96 96 97 97 98 99 100 100 101 101 102 102 102 103 104 105 106 107 108 109 110 112 112 113 114 115 116 117 118 118 119 120 121 121 121 121 122 123 124 125 127 129 130 132 133 135 136 137 139 140 141 142 144 146 148 149 151 153 154 156 158 159 161 162 163 164 166 167 168 168 169
85 86 87 89 90 91 91 92 93 94 95 95 95 95 95 96 96 96 98 100 101 101 102 102 103 103 103 104 105 106 108 108 109 110 111 113 114 115 116 117 118 119 120 121 121 123 123 122 122 123 123 124 124 124 125 126 127 127 129 130 131 133 134 136 137 138 140 142 144 145 146 148 149 151 152 154 156 157 159 160 163 165 166 167 168
84 84 86 87 88 89 91 92 93 94 94 94 95 95 96 96 96 97 98 101 102 102 102 103 104 105 106 107 107 108 109 110 110 111 112 114 115 116 118 118 119 120 121 122 123 124 124 123 123 124 124 125 125 124 125 125 125 126 127 128 129 130 131 132 133 134 135 137 139 142 143 144 145 146 147 149 150 152 153 155 157 160 162 164 166
82 83 84 85 86 88 89 90 90 91 92 93 94 95 95 96 97 97 99 101 103 103 104 104 105 106 107 108 108 109 110 111 111 112 113 115 116 118 119 120 121 122 123 124 124 124 123 122 122 123 124 124 124 124 124 124 125 126 127 128 130 131 131 131 131 131 131 132 134 136 138 140 142 143 144 145 146 147 148 149 152 154 156 158 161
78 80 82 84 86 87 88 88 89 89 91 92 93 94 95 96 97 98 99 101 103 104 104 105 106 107 108 109 109 110 111 111 112 113 114 116 117 118 119 120 121 123 123 124 123 122 121 120 120 121 121 122 122 122 123 123 124 125 127 129 131 132 133 134 133 133 132 131 131 131 133 134 136 138 140 142 143 144 144 145 146 148 150 152 155
74 75 78 81 83 84 85 86 87 88 90 91 92 93 94 95 97 97 98 100 102 103 104 105 106 107 109 110 110 111 112 112 113 114 115 116 118 119 120 121 122 122 123 123 122 120 118 117 117 117 118 119 119 119 120 121 122 123 125 127 129 131 133 134 134 134 133 132 130 129 129 129 130 132 134 136 138 140 141 142 143 144 145 147 149
71 72 75 77 78 79 80 82 83 84 85 87 88 89 90 91 92 94 95 96 98 100 101 102 104 105 106 108 109 110 111 112 113 113 115 116 117 118 119 120 120 121 122 121 120 118 116 115 114 115 116 116 116 116 116 117 117 118 120 122 124 126 129 131 132 133 133 132 130 129 127 127 126 126 127 129 131 133 135 138 139 141 142 143 144
69 70 71 72 73 74 75 76 77 79 80 82 83 84 85 86 87 89 90 92 94 96 97 99 100 101 102 104 105 107 108 109 110 111 112 113 114 115 117 118 118 119 120 119 117 116 114 113 113 113 114 115 115 116 115 115 115 116 117 118 120 121 122 124 126 128 130 130 129 128 127 126 126 125 124 124 125 126 128 130 133 136 137 139 141
66 68 68 69 70 71 72 73 74 76 77 79 80 81 82 84 85 87 88 90 92 94 95 97 98 99 100 101 102 103 104 105 106 107 109 111 112 113 114 115 116 116 117 117 116 114 112 111 110 109 109 110 111 112 112 112 112 112 113 115 117 118 119 119 120 121 123 125 125 126 125 125 125 124 124 123 122 122 122 124 126 128 131 133 135
65 66 67 67 68 69 70 72 73 75 76 77 78 80 81 83 85 86 88 89 91 93 94 95 96 97 98 98 99 101 102 103 105 106 108 109 110 111 111 112 113 113 114 114 114 113 111 109 108 106 106 106 106 107 107 107 106 106 107 108 110 114 116 117 116 115 116 117 119 121 122 122 123 123 122 122 121 120 120 120 121 122 124 126 129
65 65 66 66 68 68 70 71 72 73 74 76 77 79 81 82 84 86 88 89 91 92 93 94 95 95 96 97 98 99 101 103 104 106 107 108 108 109 109 110 111 111 111 111 111 110 109 108 107 106 105 105 105 105 104 104 103 103 103 103 105 109 112 114 112 111 111 112 113 115 117 119 120 121 121 121 120 120 119 119 119 119 121 122 123
65 66 66 66 67 68 69 70 71 72 73 75 76 78 80 82 84 86 87 89 91 92 92 93 93 94 94 95 96 98 100 102 103 105 105 106 107 108 108 109 109 109 109 108 108 107 106 105 105 104 104 104 104 104 104 103 103 102 101 101 102 106 109 109 107 106 107 108 110 112 114 116 118 119 120 120 120 120 119 118 118 118 118 119 119
66 66 66 66 67 68 69 70 70 72 73 74 76 78 80 82 83 85 87 89 89 90 91 91 91 92 93 94 95 97 99 101 102 104 105 106 108 108 108 108 108 107 106 106 105 104 103 103 102 102 102 102 102 102 102 102 101 100 99 99 100 103 105 103 102 102 104 105 106 108 110 112 114 115 117 118 119 119 118 118 118 117 117 117 117
68 68 67 67 68 68 69 69 70 71 72 74 76 78 80 81 83 85 86 87 88 88 89 89 90 91 92 94 96 98 100 101 102 103 105 106 107 108 108 107 107 106 105 104 103 102 101 101 101 100 100 99 99 99 99 99 99 98 97 97 98 100 101 100 99 99 101 103 103 104 105 107 109 110 111 113 115 115 116 116 116 116 116 116 116
70 69 69 69 69 69 70 70 71 71 73 75 76 78 79 81 82 84 85 86 86 86 87 87 89 90 93 95 97 98 100 101 102 103 104 105 105 105 105 105 104 104 103 103 102 102 101 100 100 99 98 97 96 96 96 96 96 95 95 95 96 97 98 97 97 97 99 102 102 101 101 102 103 104 106 108 110 111 112 113 113 114 114 114 114
72 71 70 70 70 70 70 71 71 72 73 75 76 78 79 81 82 83 84 85 85 85 86 86 88 90 93 95 97 98 99 100 101 101 101 101 101 101 101 101 101 101 101 101 101 100 99 98 97 95 94 94 93 92 92 92 92 92 92 93 94 96 96 95 95 95 97 98 99 99 99 99 100 101 103 105 106 107 108 109 110 111 111 111 112
74 72 72 71 71 71 71 71 72 73 74 76 77 79 80 81 82 83 84 84 83 84 84 85 87 89 92 94 96 97 98 98 98 97 97 97 97 97 97 97 98 98 98 98 98 97 95 94 92 91 91 90 89 89 88 88 88 88 88 89 91 93 93 93 93 93 93 94 95 96 97 98 98 99 100 102 103 104 105 106 107 108 108 108 109
76 74 73 72 72 71 71 72 73 74 75 77 78 80 81 82 82 83 83 83 82 82 83 84 86 89 90 92 93 94 94 94 94 94 94 93 93 93 93 94 95 95 95 94 93 92 91 89 88 88 87 86 86 85 85 84 84 84 85 86 87 89 90 90 91 91 91 91 91 92 94 95 96 97 98 100 101 102 103 103 104 105 105 106 106
77 75 74 73 72 72 73 73 74 75 77 78 79 80 81 82 82 82 82 82 81 81 82 84 86 87 89 89 89 89 89 90 90 90 91 91 90 90 91 91 91 91 90 89 88 88 87 86 85 84 84 83 83 82 82 81 81 81 81 82 83 84 85 86 87 88 89 89 89 90 91 92 93 95 96 98 99 99 99 100 101 102 102 102 103
77 76 74 74 73 73 73 74 75 76 77 79 80 81 81 82 82 82 81 81 80 81 82 83 84 86 86 86 86 85 85 86 86 87 87 87 88 88 88 87 87 86 85 85 84 84 84 83 83 82 81 81 80 80 79 78 78 78 78 78 79 80 81 82 83 85 86 87 88 88 89 90 91 92 94 95 95 95 95 96 98 98 99 99 100
77 76 75 74 73 73 74 74 75 77 78 79 80 81 81 81 81 81 81 80 80 80 81 82 83 84 84 83 82 82 82 83 83 83 84 84 84 85 84 84 83 82 81 81 81 81 80 80 80 80 79 79 78 77 76 75 75 75 75 75 75 76 77 79 80 82 83 85 86 87 88 88 89 90 90 91 91 91 91 93 94 95 95 96 97
78 77 75 74 74 74 75 75 76 78 79 80 80 81 81 81 81 81 81 80 80 80 81 81 81 81 81 80 79 80 80 80 80 81 81 81 82 81 81 80 80 79 79 79 78 78 77 77 77 77 77 76 75 74 73 73 73 72 72 72 72 73 74 76 78 79 81 82 84 85 86 86 87 87 87 87 87 88 89 90 91 92 92 93 93
80 78 77 76 75 75 76 77 78 79 80 81 81 81 81 82 81 81 81 80 80 80 80 80 79 79 78 77 77 78 78 78 78 79 79 80 79 78 78 77 77 77 77 77 77 76 76 75 74 74 73 72 72 72 72 72 72 71 69 69 70 71 72 74 75 77 79 80 81 82 83 84 84 84 84 84 85 85 87 87 88 89 89 89 90
81 79 78 77 77 77 78 78 79 81 81 82 82 82 82 81 81 81 80 80 79 79 79 78 78 77 77 76 76 76 76 77 77 77 78 78 77 76 75 74 74 74 74 74 74 74 74 73 73 72 71 70 68 68 69 70 70 69 67 66 67 69 71 72 73 74 75 77 78 79 80 81 81 82 82 82 83 83 84 84 85 86 86 87 88
82 81 80 79 78 78 79 80 81 82 82 82 82 82 82 81 81 81 80 79 79 79 78 77 76 76 76 76 76 76 76 76 76 77 77 76 75 74 73 72 72 72 72 72 71 71 71 70 70 70 69 68 66 66 67 67 67 66 65 64 65 67 69 70 70 71 72 73 74 76 77 77 78 79 80 80 81 81 81 81 82 83 84 85 85
84 82 81 80 79 79 80 81 82 83 83 83 83 83 82 81 81 81 80 79 79 78 77 76 75 75 76 76 76 75 75 75 75 75 76 75 73 72 71 70 70 69 70 69 69 68 68 68 67 67 67 66 64 64 65 64 63 62 61 62 63 65 66 68 69 69 70 70 71 72 74 74 75 76 77 78 78 78 78 79 79 80 80 81 81
85 83 82 81 80 80 81 82 83 84 84 84 84 83 83 82 82 81 81 80 79 79 77 76 75 75 76 76 75 75 74 74 74 74 74 74 72 70 69 68 68 68 67 67 67 66 65 65 65 65 65 65 63 62 62 62 60 59 58 59 61 63 64 65 67 67 68 68 69 69 70 71 73 74 75 75 75 75 75 75 76 76 76 77 77
86 85 83 82 82 81 82 83 84 84 85 85 85 84 84 83 82 82 82 81 80 79 78 77 76 76 76 77 76 75 74 74 74 73 73 72 71 69 68 67 67 66 66 65 65 64 63 63 63 63 64 63 62 61 61 60 59 57 57 58 60 61 62 62 63 64 65 65 66 67 67 68 70 71 72 72 71 71 71 71 71 72 72 73 74
88 86 85 84 83 83 83 84 85 86 86 86 86 85 84 84 83 82 82 81 80 79 78 77 76 76 77 77 76 75 74 74 73 73 72 72 70 68 67 66 66 65 64 64 64 62 61 61 62 62 62 62 61 59 59 59 58 57 56 57 59 60 60 60 60 61 62 63 64 64 65 66 67 68 68 68 68 67 66 67 68 68 69 71 73
89 88 87 86 85 84 85 85 86 87 88 88 87 86 85 84 83 83 82 81 80 79 78 77 77 77 77 76 75 74 74 73 73 73 72 71 70 68 66 66 65 64 63 63 62 61 59 59 60 60 60 60 59 58 56 57 56 55 55 56 58 58 59 58 58 59 60 60 61 61 62 63 64 65 65 64 64 63 63 64 65 66 67 69 72
90 89 89 88 87 86 86 87 88 88 89 89 88 87 86 85 84 83 83 82 81 80 79 78 78 78 77 76 75 74 73 73 72 72 71 70 69 68 66 65 64 63 63 62 61 60 58 57 57 58 58 58 58 56 54 54 54 53 53 55 56 57 57 57 57 57 58 58 58 58 59 59 60 61 62 61 60 60 60 61 62 63 65 67 69
92 91 90 89 88 88 88 88 89 89 90 90 89 87 86 86 85 84 83 83 82 81 80 79 79 79 78 76 74 73 73 72 72 71 71 70 69 67 66 65 64 63 62 61 61 60 58 56 56 56 57 57 57 56 54 52 52 52 52 52 54 55 55 56 56 56 56 56 56 55 56 56 57 58 59 58 58 58 58 57 58 60 63 65 66
93 93 92 91 90 89 89 89 89 90 90 90 89 88 87 86 85 84 84 83 82 81 81 80 80 80 78 76 74 73 73 72 71 71 70 70 69 67 65 64 64 63 62 61 60 59 58 56 55 55 55 55 55 55 54 52 51 50 50 51 52 53 53 54 55 55 54 54 54 54 54 54 54 55 56 56 56 56 56 55 57 59 60 61 63
95 94 93 92 91 90 90 89 90 90 90 90 89 88 87 86 85 84 84 83 82 81 81 81 80 80 79 77 75 73 72 72 71 70 70 69 69 67 65 64 63 63 62 61 60 59 58 57 55 54 53 53 53 53 53 52 51 50 50 50 50 51 51 52 53 54 53 53 53 53 53 53 53 53 53 54 54 55 54 54 56 57 57 59 62
96 95 94 94 92 91 90 90 90 90 90 90 89 88 87 86 85 84 84 83 82 81 81 81 80 80 79 77 75 73 72 71 71 70 69 69 68 68 65 64 63 62 62 61 60 59 58 57 56 55 53 52 51 51 51 51 51 50 50 49 49 50 50 50 51 52 53 53 53 52 51 51 51 51 51 51 52 52 53 53 54 55 55 57 60
97 96 95 94 93 92 91 90 89 90 90 89 89 88 87 85 84 83 83 83 83 82 81 81 81 80 79 77 75 74 72 71 70 69 68 68 68 67 66 64 62 62 61 60 60 59 59 58 56 55 54 52 50 49 49 50 50 50 50 50 50 50 49 48 48 49 51 53 53 52 51 50 50 49 49 49 50 50 51 52 53 53 54 56 57
97 96 96 95 94 92 91 90 89 89 89 88 88 87 86 85 84 83 83 83 83 82 82 81 81 80 79 78 76 75 73 72 70 69 68 66 66 67 66 64 63 62 60 60 59 59 58 58 57 56 55 53 51 49 49 49 49 49 49 49 50 50 50 49 47 47 49 50 51 51 51 50 49 48 48 48 48 48 49 50 51 52 53 54 56
97 97 96 95 94 93 91 90 89 89 88 88 87 86 85 84 83 83 83 83 83 83 82 82 81 81 80 78 77 76 75 73 71 69 67 66 65 65 65 64 63 62 60 59 59 58 58 58 57 56 55 54 52 50 48 48 49 48 48 48 49 50 50 50 48 46 46 48 49 50 50 49 49 49 48 47 47 47 48 48 49 50 52 53 54
97 97 96 95 94 93 91 90 89 88 88 88 87 86 85 84 83 83 83 83 83 83 82 82 82 81 80 78 77 76 75 74 72 70 68 66 65 64 64 63 62 61 60 59 59 58 58 58 57 56 56 56 54 51 49 48 49 49 48 48 48 49 50 50 49 47 47 47 47 47 47 47 48 48 48 48 47 46 47 47 47 48 49 51 52
97 97 96 95 94 93 91 89 88 88 88 87 87 86 85 83 83 82 83 83 83 83 82 82 82 81 80 78 77 76 75 73 72 71 70 67 65 63 64 64 62 60 59 58 58 57 57 57 57 56 55 55 54 53 50 48 48 48 48 47 46 46 47 48 47 47 47 47 48 48 47 46 45 46 47 47 47 46 47 46 46 46 47 48 50
97 96 96 95 94 93 91 89 88 87 87 87 86 85 84 83 82 82 82 83 83 83 83 82 82 81 80 78 77 76 75 73 72 72 71 70 67 64 62 62 62 61 59 57 56 57 56 56 56 57 56 55 55 55 53 51 50 50 49 48 46 45 45 45 44 44 44 44 46 47 48 47 46 45 46 46 46 46 46 46 46 45 45 45 46
97 96 95 95 93 92 90 88 87 86 86 86 85 85 83 82 81 81 81 82 83 83 83 83 83 82 80 79 77 76 75 74 72 71 71 71 70 68 64 60 59 60 59 57 55 55 55 54 54 55 56 56 56 55 54 53 53 54 54 53 50 48 46 45 43 42 42 42 42 44 45 46 46 46 46 46 46 46 45 44 44 44 44 44 44
Wind_Direction
272 272 272 272 272 272 272 272 272 272 272 271 271 271 270 270 270 270 269 269 269 269 269 269 269 269 269 269 269 269 269 269 268 268 268 268 267 267 267 267 266 266 266 265 265 265 265 265 264 264 264 264 263 263 263 262 262 262 261 261 260 260 259 258 258 257 257 257 257 257 257 257 256 256 256 256 256 256 256 256 256 256 256 256 256
273 273 273 273 273 273 273 273 273 273 272 272 272 272 271 271 271 270 270 270 270 269 269 269 269 269 269 269 269 269 269 269 269 268 268 268 268 267 267 267 266 266 266 265 265 265 265 264 264 264 264 264 263 263 263 263 262 262 262 261 261 261 260 260 259 258 258 257 257 257 257 257 257 256 256 256 256 256 256 256 256 256 256 256 256
274 274 274 274 274 274 274 274 274 274 274 274 274 273 273 273 273 272 272 271 271 271 271 270 270 270 270 270 270 270 269 269 269 269 268 268 268 268 267 267 267 267 266 266 266 265 265 265 264 264 264 263 263 263 263 262 262 262 262 262 261 261 261 260 260 260 259 258 258 258 257 257 257 257 256 256 256 256 256 256 256 256 256 255 255
276 276 276 276 276 276 276 276 276 275 275 275 275 274 274 274 274 274 273 273 273 272 272 272 272 272 271 271 271 271 271 271 270 270 269 269 269 269 268 268 268 267 267 266 266 266 265 265 265 264 264 263 263 263 263 262 262 262 262 262 262 261 261 261 261 260 260 259 259 258 258 258 258 257 257 257 256 256 256 256 256 256 256 255 255
278 278 278 278 278 278 277 277 277 276 276 275 275 274 274 274 274 273 273 273 273 273 272 272 272 272 272 272 271 271 271 271 271 271 271 270 270 270 270 269 269 269 268 268 267 267 266 266 265 265 264 264 263 263 263 262 262 262 262 262 261 261 261 261 261 261 260 260 260 259 259 258 258 258 258 258 257 257 256 256 256 256 256 256 255
279 279 278 278 278 278 277 277 277 276 276 276 276 275 275 274 274 274 273 273 273 273 273 272 272 272 272 271 271 271 270 270 270 270 270 270 270 270 270 270 270 269 269 269 268 268 267 267 267 266 266 265 265 264 263 263 262 262 262 261 261 261 261 261 261 261 261 260 260 260 260 259 259 258 258 258 258 258 257 257 256 256 256 256 255
280 279 279 279 279 278 278 278 277 277 277 277 276 276 276 276 276 275 275 275 275 275 274 274 274 274 274 273 273 273 272 272 272 271 271 271 271 271 271 270 270 270 269 269 268 268 267 267 267 266 266 266 266 265 265 264 264 263 263 262 262 261 261 261 260 260 260 260 260 260 260 259 259 259 259 258 258 258 258 257 257 256 256 256 255
280 280 280 280 279 279 279 279 278 278 277 277 277 277 277 277 277 277 277 277 276 277 277 277 277 277 276 276 276 275 275 275 275 274 274 274 273 273 272 272 271 271 271 270 269 269 268 267 267 266 266 266 266 266 266 265 265 264 264 263 263 262 262 261 261 261 260 260 260 259 259 259 259 259 259 259 258 258 258 258 258 257 257 256 256
281 281 280 280 279 279 279 278 278 278 277 277 277 277 277 278 278 278 278 278 277 278 278 278 278 278 278 278 278 278 278 277 277 277 276 275 275 274 274 273 273 273 272 272 272 271 270 269 269 268 268 267 266 266 266 265 265 265 264 264 264 263 263 262 262 261 261 261 260 260 259 259 258 258 258 258 258 258 258 258 258 258 257 257 256
282 281 281 280 280 279 279 279 278 278 278 278 278 278 279 279 279 279 279 279 279 279 279 279 279 279 279 279 279 279 279 279 278 278 277 276 276 275 275 275 274 274 274 274 273 273 272 272 271 271 270 269 268 268 267 266 266 265 265 264 264 264 263 263 263 262 262 261 261 260 260 259 259 258 258 257 257 257 257 257 258 258 258 257 257
283 282 282 281 281 281 281 281 281 281 281 281 281 281 281 281 281 281 281 281 281 280 280 280 280 281 281 280 280 280 280 279 279 278 278 277 277 277 276 276 275 275 275 275 275 274 274 273 273 272 272 271 270 270 269 269 268 267 267 266 265 264 264 263 262 262 262 261 261 261 260 260 259 258 258 257 257 257 257 256 256 257 257 257 257
283 283 283 283 283 283 283 282 282 283 283 284 284 283 283 283 283 283 283 283 282 282 282 282 282 282 281 281 281 280 280 280 279 279 279 278 278 277 277 277 276 276 276 276 275 275 274 274 274 273 273 272 272 272 271 271 271 270 270 269 268 267 266 265 263 262 261 261 260 260 260 260 260 259 259 258 257 257 256 256 256 256 256 256 257
285 285 285 285 285 284 284 284 284 285 285 285 285 285 285 285 285 285 284 284 284 284 284 283 283 282 282 281 281 281 280 280 280 280 279 279 278 278 278 278 278 277 277 276 276 275 275 275 274 274 274 273 273 273 273 272 272 271 271 270 270 269 268 267 266 264 263 261 260 259 259 259 259 259 259 258 258 257 256 256 255 255 255 255 256
289 289 288 288 287 286 287 287 287 287 287 287 286 286 286 286 285 285 285 285 285 285 284 284 284 283 283 283 282 282 281 281 281 280 280 280 279 279 279 279 279 278 278 277 276 276 276 276 275 275 275 275 274 274 273 272 271 271 270 270 269 269 269 268 268 267 266 264 262 261 260 259 258 258 258 258 258 257 257 256 255 255 255 254 254
293 291 290 289 288 288 288 288 288 287 287 287 286 286 286 286 286 286 286 286 286 286 285 285 285 285 284 284 283 283 282 282 282 281 281 280 280 280 280 279 279 278 278 278 278 278 277 277 277 276 276 275 274 273 272 271 270 269 268 267 267 267 267 267 267 267 267 266 265 264 262 260 259 258 257 257 256 256 256 256 256 255 255 254 254
296 294 292 291 291 290 289 289 288 288 288 288 287 288 288 288 288 288 288 287 287 287 287 286 286 286 285 285 284 284 283 283 282 282 281 281 280 280 280 279 279 279 279 279 279 280 280 280 279 279 278 277 276 275 273 272 271 269 268 266 265 265 265 265 266 266 266 266 266 265 264 263 261 260 258 257 256 256 255 255 255 255 255 254 254
299 298 296 295 294 293 291 291 290 290 290 290 290 291 291 291 290 290 290 290 289 289 288 288 287 287 286 285 285 284 284 283 283 282 281 281 281 280 280 280 280 281 281 282 282 282 282 281 280 279 279 278 277 276 275 273 272 271 270 269 267 266 265 264 264 265 265 266 266 266 265 265 264 263 261 260 258 257 256 255 254 254 253 253 253
304 302 300 298 297 295 294 294 293 293 293 293 293 293 293 293 292 292 292 292 291 290 290 289 289 288 287 287 286 286 285 284 284 283 282 282 281 281 282 282 282 283 283 284 284 284 283 282 281 280 278 277 276 275 274 273 272 271 270 269 269 268 267 265 264 264 264 265 266 266 266 265 265 264 263 262 261 259 257 256 255 253 253 252 252
309 306 304 302 300 299 298 297 297 296 296 296 296 296 295 295 295 295 294 294 293 293 292 291 291 290 289 289 288 288 287 286 285 284 284 283 283 284 284 284 285 285 285 285 286 286 285 285 284 282 281 279 278 276 275 274 273 272 270 269 269 269 268 267 266 265 265 265 265 265 265 265 265 264 264 263 262 260 259 257 256 254 253 252 251
313 310 308 306 304 303 301 300 300 299 299 298 298 298 297 297 297 297 297 297 296 295 295 294 293 292 291 290 290 289 288 287 286 286 286 286 286 287 287 287 287 287 287 287 287 287 287 286 285 284 283 282 281 279 278 277 275 274 272 271 270 269 268 268 267 267 266 265 264 264 264 263 263 263 263 262 262 261 259 258 257 255 254 252 251
315 312 310 308 306 305 303 302 302 301 301 300 300 300 300 300 300 300 300 299 298 297 296 295 294 293 292 290 289 288 288 287 287 288 289 289 289 289 289 289 289 288 288 288 288 287 287 286 285 285 284 283 282 281 280 279 277 276 274 273 272 270 269 269 268 268 266 264 263 262 262 262 261 261 261 261 261 261 260 259 257 256 255 253 252
316 313 312 310 308 307 305 305 304 303 303 303 303 302 302 302 302 302 301 300 300 299 297 296 294 293 292 291 290 290 289 290 290 291 292 292 292 292 292 291 291 291 290 289 289 288 287 287 286 285 284 283 282 281 281 280 279 277 276 274 273 271 271 270 270 268 267 265 264 262 261 261 261 260 261 261 261 260 260 259 259 257 256 255 253
318 315 313 312 310 308 307 306 306 305 305 305 304 304 304 304 304 303 303 302 301 300 298 297 296 295 294 293 292 292 292 293 293 293 293 293 293 293 293 293 292 292 292 291 290 290 289 288 288 287 286 284 283 282 281 280 279 278 276 275 273 272 272 271 270 269 267 266 264 263 262 261 261 261 260 260 260 260 260 259 259 258 258 256 255
320 317 316 314 312 310 309 308 308 307 307 306 306 306 306 306 306 305 305 304 303 301 300 299 297 296 295 294 294 294 294 295 295 295 294 294 294 294 294 293 293 293 293 292 292 291 291 290 289 287 286 285 284 282 281 280 279 278 277 276 274 273 272 271 270 268 267 266 265 264 263 262 262 261 260 260 259 259 259 258 258 258 257 257 256
321 319 317 316 314 312 311 311 310 309 308 308 308 308 308 308 308 308 307 307 305 303 301 299 297 296 295 295 295 295 296 296 296 295 295 295 295 294 294 294 294 293 293 293 292 291 291 289 288 287 286 285 284 282 281 280 279 278 277 276 274 273 272 271 270 268 267 267 267 266 265 263 262 261 260 259 259 258 258 257 257 257 256 256 256
323 321 320 318 316 314 313 312 311 310 310 310 310 310 310 310 310 310 309 308 305 303 301 299 298 297 296 296 296 297 297 297 296 296 296 295 295 295 295 294 294 293 293 292 292 291 290 289 288 287 286 285 284 283 282 280 279 278 276 275 274 274 273 273 271 270 269 268 267 266 265 264 263 262 261 260 259 258 257 257 256 256 255 255 255
324 323 321 319 317 315 314 313 313 313 313 312 312 312 313 313 312 311 310 308 305 303 301 299 298 297 297 297 298 298 298 298 297 297 297 296 296 295 295 295 294 293 293 292 292 291 290 290 289 288 287 286 285 284 283 281 280 279 277 276 275 274 274 273 272 272 270 269 268 266 265 264 263 262 261 260 259 258 258 257 257 256 256 255 254
325 324 321 320 318 317 316 316 315 315 315 314 314 314 314 313 312 311 310 308 306 304 302 300 299 299 298 299 299 299 299 299 299 298 298 298 297 297 296 295 295 294 294 293 293 292 292 291 291 290 289 288 286 285 284 283 281 280 278 277 275 274 273 273 272 272 271 270 268 267 265 264 263 262 261 260 260 259 258 258 258 257 257 256 255
325 324 322 321 320 319 318 318 317 316 316 316 316 315 314 314 313 312 311 309 307 305 303 302 301 301 301 301 301 301 301 300 300 299 299 298 298 298 297 296 295 295 294 294 294 294 293 293 292 291 290 289 288 287 286 284 283 281 279 278 276 275 274 273 272 271 270 269 268 267 266 265 263 262 261 261 260 260 259 259 258 258 257 257 256
325 324 323 322 322 321 320 319 318 318 318 317 316 315 315 315 315 314 312 311 308 307 305 304 304 304 304 304 303 303 302 302 301 301 300 300 300 299 299 298 297 296 296 295 295 295 295 294 293 293 292 290 289 288 287 286 284 283 281 280 278 277 275 274 273 271 270 269 268 267 266 265 264 263 262 262 261 261 260 260 259 258 257 257 256
326 326 325 324 322 322 321 320 320 320 319 318 317 317 317 317 316 315 314 312 310 308 307 306 306 306 306 305 305 305 304 304 303 303 302 302 302 301 301 300 299 299 298 298 297 296 296 295 294 293 293 292 291 290 289 288 286 284 283 282 280 278 276 274 273 271 270 269 268 267 267 266 265 265 264 263 262 261 260 259 259 258 257 256 256
328 327 326 325 324 323 323 322 321 320 320 319 319 318 318 318 318 317 315 313 311 310 309 308 308 308 307 307 307 307 307 306 306 306 305 305 304 304 303 302 301 301 300 300 299 298 298 296 295 294 293 293 293 292 291 290 288 286 285 283 282 279 277 275 273 272 271 270 269 268 268 267 266 266 265 264 263 262 260 259 259 258 257 256 255
328 328 327 326 325 324 324 323 322 322 321 321 320 320 320 319 319 318 316 315 313 312 311 311 311 310 310 310 311 311 310 309 309 308 308 307 306 305 305 304 303 302 301 301 300 300 299 298 297 296 295 295 294 293 292 291 289 288 287 285 283 280 278 276 274 273 272 271 270 269 268 268 267 266 265 264 263 262 261 260 259 259 258 257 256
329 328 328 327 326 325 324 324 323 323 323 322 322 321 321 320 320 319 317 316 315 314 314 314 313 313 313 314 314 313 312 312 311 310 310 309 308 307 306 305 304 304 303 302 301 300 300 299 299 298 297 297 296 295 293 291 290 289 288 286 284 281 279 278 276 274 272 271 270 269 268 268 267 266 265 264 263 262 261 261 260 259 258 257 257
329 329 328 327 326 325 325 324 324 324 324 323 323 322 322 321 321 320 319 318 317 316 316 316 316 316 316 316 316 315 314 313 313 312 312 311 310 309 308 307 306 305 304 303 302 302 301 301 300 300 299 298 297 296 294 292 291 290 289 287 284 282 281 279 277 275 273 271 270 269 268 267 266 265 264 263 262 261 261 260 259 259 258 258 258
330 329 328 327 326 325 325 325 325 325 324 324 324 323 323 323 322 321 321 320 319 319 318 318 319 319 319 318 318 317 316 315 315 314 314 313 312 311 310 309 308 307 306 305 304 304 303 303 302 302 301 300 299 298 296 294 293 291 290 288 286 284 282 280 279 277 276 274 272 271 269 268 266 265 264 263 262 261 261 260 260 260 259 259 258
330 329 328 327 327 326 325 325 325 325 325 325 325 325 324 324 324 323 322 321 321 320 321 321 321 321 321 321 320 319 318 317 317 316 315 314 314 313 312 310 309 308 307 306 306 305 305 305 305 304 303 302 301 300 298 297 295 294 293 291 289 287 285 283 281 279 278 276 274 272 271 269 268 267 266 265 263 263 262 262 261 261 260 259 258
330 329 329 328 327 326 326 325 325 326 326 326 326 326 325 325 324 324 323 323 322 322 322 322 323 323 323 322 321 320 320 319 319 318 317 317 316 315 314 312 311 310 309 308 307 307 307 307 307 306 305 304 302 302 301 300 299 298 297 296 294 291 289 287 284 282 279 277 276 274 273 271 270 268 267 266 266 265 264 264 263 261 260 259 257
330 329 329 328 328 327 327 326 326 327 327 327 326 326 326 325 325 324 324 324 324 324 324 324 324 325 324 323 322 322 321 321 320 320 319 318 317 317 316 314 313 312 311 310 309 309 309 309 308 308 307 305 304 303 302 302 302 302 301 299 297 295 292 290 287 284 282 280 279 278 276 275 273 272 270 269 268 267 265 264 262 261 260 259 257
329 329 329 329 328 328 327 327 327 327 327 327 327 327 327 326 326 325 325 325 325 325 325 325 325 326 325 325 324 323 323 322 322 321 320 320 319 319 318 316 315 314 312 311 310 310 310 310 310 309 308 306 305 304 303 303 304 304 303 302 299 297 294 292 289 286 285 283 282 281 279 278 276 275 273 272 270 268 266 264 264 263 262 261 260
329 329 329 329 329 328 328 327 327 327 327 327 327 327 327 327 326 326 326 326 327 326 326 326 326 327 326 326 325 324 324 323 323 322 322 321 320 320 319 318 317 315 314 313 312 312 311 312 311 311 310 308 307 306 305 305 305 305 305 304 301 299 296 293 290 288 286 285 283 281 279 278 277 276 274 273 271 269 267 265 264 263 261 260 260
329 329 329 329 329 329 328 327 327 326 326 327 327 328 327 327 327 327 327 327 327 327 327 327 327 327 327 326 326 326 325 325 324 324 323 323 322 321 321 320 318 317 315 314 314 313 313 313 313 312 311 310 309 308 308 307 307 307 307 306 303 301 298 294 291 289 287 285 283 282 280 278 277 275 274 273 271 269 267 265 263 261 260 260 260
328 328 328 328 328 328 328 327 326 326 326 327 327 328 328 327 327 327 327 328 328 328 328 327 327 327 327 327 327 326 326 326 326 325 325 324 323 322 322 321 320 318 317 316 315 314 314 314 314 313 313 311 310 310 310 310 310 310 309 308 306 303 299 296 292 290 288 285 283 282 281 280 278 277 276 275 273 271 269 267 264 262 261 260 259
327 328 328 328 328 327 327 327 326 326 326 327 327 328 328 327 327 327 327 327 328 328 328 328 328 328 328 328 328 327 327 327 327 327 326 325 324 323 323 322 321 320 318 317 316 316 315 315 315 314 314 313 312 311 312 312 312 312 311 310 308 305 301 297 294 291 289 287 285 283 282 281 280 279 278 276 275 273 271 269 266 264 262 260 259
327 327 327 327 327 327 326 326 326 326 326 327 327 327 327 327 327 327 327 328 328 328 328 328 328 328 328 328 328 328 328 328 328 328 327 327 325 324 323 323 323 321 320 318 317 317 316 316 316 316 315 314 313 313 313 313 314 313 313 312 310 307 303 299 295 292 290 289 288 287 285 283 281 280 278 276 275 273 271 270 268 266 264 262 261
326 326 326 326 326 326 326 325 325 325 326 326 327 327 327 327 328 327 328 328 328 329 328 328 328 329 329 329 329 329 329 329 329 328 328 328 326 325 324 324 324 323 321 319 318 318 318 317 317 317 316 315 315 314 314 315 315 315 315 314 313 309 306 302 297 294 291 290 289 288 286 285 284 282 280 278 276 274 272 270 268 267 265 263 262
325 325 325 325 326 325 325 325 325 325 325 326 327 327 327 328 328 328 328 329 329 329 329 329 329 329 330 330 330 330 330 329 329 329 329 329 328 326 325 325 324 323 322 320 319 319 319 318 318 318 317 316 316 316 315 316 316 316 316 316 314 311 308 305 301 297 293 290 289 288 288 287 286 284 282 279 277 275 273 271 269 267 266 264 263
325 325 325 325 325 325 325 324 324 325 325 326 326 327 327 328 328 329 329 329 329 329 329 329 329 330 330 330 330 330 330 330 330 329 329 329 329 327 326 325 325 324 323 322 320 320 320 319 319 319 319 318 317 317 317 317 318 318 318 318 317 314 310 307 304 301 296 292 290 288 288 287 287 286 285 283 280 278 275 273 270 269 267 265 264
324 324 324 324 324 324 324 324 324 325 325 326 326 327 328 328 329 329 329 329 329 329 329 329 329 330 330 330 330 330 330 330 330 330 330 329 329 329 327 326 325 325 324 323 321 320 320 320 320 319 319 319 318 318 317 317 317 318 318 318 318 315 312 308 305 302 299 297 295 292 290 288 287 286 285 284 283 281 279 276 273 270 267 266 265
324 324 324 324 324 324 324 324 324 325 325 326 326 327 328 328 329 329 329 329 329 329 329 329 330 330 330 330 330 330 330 331 331 331 331 330 329 329 328 327 326 325 325 324 322 320 320 321 321 321 321 321 320 319 319 319 319 319 319 319 319 318 315 310 306 302 299 297 296 295 294 293 291 289 286 284 283 281 279 278 276 274 271 267 265
323 323 323 323 323 323 323 324 324 324 325 326 326 327 328 328 329 329 329 330 329 329 329 329 330 330 330 330 331 330 331 331 332 332 332 331 330 329 328 328 327 326 325 324 323 321 320 321 322 322 322 322 321 321 322 322 322 321 321 320 320 320 318 315 310 304 300 297 295 294 294 294 293 292 290 288 287 284 282 279 277 275 273 271 268